Weather History for Peachtree City, GA

Change the Weather History Date:

Tuesday, October 9, 2012

  Actual Average Record
Temperature  
Mean Temperature 61 °F 64 °F  
Max Temperature 71 °F 76 °F 86 °F (2010)
Min Temperature 51 °F 51 °F 34 °F (2000)
Degree Days  
Heating Degree Days 4 3  
Month to date heating degree days 22  
Since 1 July heating degree days 35  
Cooling Degree Days 0 2  
Month to date cooling degree days 22  
Year to date cooling degree days 1630  
Growing Degree Days 11 (Base 50)    
Moisture  
Dew Point 50 °F    
Average Humidity 76    
Maximum Humidity 93    
Minimum Humidity 51    
Precipitation  
Precipitation 0.00 in 0.12 in 0.21 in (1999)
Month to date precipitation 1.20  
Snow  
Snow 0.00 in - - ()
Month to date snowfall  
Since 1 July snowfall  
Since 1 September snowfall  
Snow Depth -    
Sea Level Pressure  
Sea Level Pressure 30.12 in    
Wind  
Wind Speed 2 mph (East)    
Max Wind Speed 7 mph    
Max Gust Speed -    
Visibility 10 miles    
Events      
T = Trace of Precipitation, MM = Missing Value Source: NWS Daily Summary

Daily Weather History Graph

Daily Weather History Graph

Search for Another Location

Airport:

Trip Planner

Search our weather history database for the weather conditions in past years. The results will help you decide how hot, cold, wet, or windy it might be!

Date:

Astronomy

Oct. 09, 2012 Rise Set
Actual Time 7:38 AM EDT 7:11 PM EDT
Civil Twilight 7:13 AM EDT 7:36 PM EDT
Nautical Twilight 6:45 AM EDT 8:05 PM EDT
Astronomical Twilight 6:16 AM EDT 8:33 PM EDT
Moon 1:31 AM EDT (10/9) 3:22 PM EDT (10/9)
Length of Visible Light 12h 22m
Length of Day
11h 32m
Last Quarter, 37% of the Moon is Illuminated
Oct 9
Last Quarter
Oct 15
New
Oct 21
First Quarter
Oct 29
Full
Nov 6
Last Quarter

Hourly Weather History & Observations

Time (EDT) Temp. Dew Point Humidity Pressure Visibility Wind Dir Wind Speed Gust Speed Precip Events Conditions
12:53 AM 55.0 °F 50.0 °F 83% 30.14 in 10.0 mi Calm Calm - N/A   Overcast
1:53 AM 55.0 °F 50.0 °F 83% 30.14 in 10.0 mi Calm Calm - N/A   Overcast
2:53 AM 55.0 °F 48.9 °F 80% 30.14 in 10.0 mi Calm Calm - N/A   Overcast
3:21 AM 55.4 °F 48.2 °F 77% 30.13 in 10.0 mi NE 3.5 mph - N/A   Overcast
4:53 AM 55.0 °F 48.9 °F 80% 30.13 in 10.0 mi Calm Calm - N/A   Overcast
5:53 AM 54.0 °F 48.9 °F 83% 30.13 in 10.0 mi ESE 3.5 mph - N/A   Overcast
7:53 AM 53.1 °F 48.9 °F 86% 30.16 in 10.0 mi ENE 3.5 mph - N/A   Overcast
8:32 AM 53.6 °F 48.2 °F 82% 30.15 in 10.0 mi East 4.6 mph - N/A   Overcast
8:53 AM 54.0 °F 48.9 °F 83% 30.16 in 10.0 mi East 5.8 mph - N/A   Overcast
9:53 AM 55.0 °F 48.0 °F 77% 30.17 in 10.0 mi East 6.9 mph - N/A   Overcast
10:39 AM 55.4 °F 48.2 °F 77% 30.17 in 10.0 mi SE 6.9 mph - N/A   Overcast
10:53 AM 57.0 °F 48.9 °F 74% 30.18 in 10.0 mi Variable 3.5 mph - N/A   Overcast
11:36 AM 59.0 °F 50.0 °F 72% 30.16 in 10.0 mi Variable 3.5 mph - N/A   Overcast
11:53 AM 60.1 °F 50.0 °F 69% 30.16 in 10.0 mi ESE 3.5 mph - N/A   Overcast
12:53 PM 63.0 °F 51.1 °F 65% 30.14 in 10.0 mi Calm Calm - N/A   Mostly Cloudy
1:42 PM 64.4 °F 51.8 °F 64% 30.12 in 10.0 mi Calm Calm - N/A   Mostly Cloudy
1:51 PM 66.2 °F 51.8 °F 60% 30.12 in 10.0 mi Variable 3.5 mph - N/A   Scattered Clouds
1:53 PM 66.0 °F 52.0 °F 60% 30.11 in 10.0 mi Calm Calm - N/A   Scattered Clouds
2:53 PM 64.9 °F 51.1 °F 61% 30.09 in 10.0 mi Calm Calm - N/A   Scattered Clouds
3:53 PM 68.0 °F 51.1 °F 55% 30.08 in 10.0 mi Calm Calm - N/A   Partly Cloudy
4:53 PM 69.1 °F 51.1 °F 53% 30.07 in 10.0 mi Calm Calm - N/A   Partly Cloudy
5:53 PM 70.0 °F 51.1 °F 51% 30.06 in 10.0 mi Calm Calm - N/A   Clear
6:53 PM 62.1 °F 57.0 °F 84% 30.06 in 10.0 mi Calm Calm - N/A   Clear
7:53 PM 57.0 °F 54.0 °F 89% 30.08 in 10.0 mi Calm Calm - N/A   Clear
8:53 PM 54.0 °F 52.0 °F 93% 30.09 in 8.0 mi Calm Calm - N/A   Clear
9:53 PM 53.1 °F 51.1 °F 93% 30.10 in 7.0 mi Calm Calm - N/A   Clear
10:53 PM 52.0 °F 50.0 °F 93% 30.11 in 7.0 mi Calm Calm - N/A   Clear
11:53 PM 51.1 °F 48.9 °F 92% 30.11 in 7.0 mi Calm Calm - N/A   Partly Cloudy